Location: Fort Wayne
(41.1310°N, 85.1290°W)
Time: 02:13:10
(UTC-04:00)

Iridium 37 - Visible Passes

Search period start: 03 July 2015 00:00
Search period end: 13 July 2015 00:00
Orbit: 776 x 779 km, 86.4° (Epoch: 02 July)

Date Brightness Start Highest point End Pass type
(mag) Time Alt. Az. Time Alt. Az. Time Alt. Az.
03 Jul 6.1 00:46:28 40° SW 00:47:46 50° W 00:52:50 10° N visible
04 Jul 5.4 00:12:53 53° S 00:14:11 89° E 00:19:26 10° N visible
04 Jul 8.1 01:54:54 10° W 01:55:50 10° WNW 01:56:24 10° WNW visible
04 Jul 5.9 23:39:17 38° SE 23:40:43 48° E 23:45:44 10° NNE visible
05 Jul 7.5 01:19:45 16° WSW 01:21:49 19° WNW 01:25:26 10° NNW visible
05 Jul 6.7 23:05:41 22° ESE 23:07:21 27° E 23:11:41 10° NNE visible
06 Jul 6.7 00:46:09 27° WSW 00:47:58 34° W 00:52:42 10° NNW visible
06 Jul 7.4 22:32:04 12° ESE 22:34:04 15° E 22:36:59 10° NE visible
07 Jul 5.8 00:12:31 40° SSW 00:14:18 64° W 00:19:29 10° N visible
07 Jul 5.5 23:38:54 40° SSE 23:40:46 71° E 23:45:59 10° N visible
08 Jul 7.9 01:19:32 10° WSW 01:22:11 13° WNW 01:24:33 10° NW visible
08 Jul 6.2 23:05:16 27° SE 23:07:21 38° E 23:12:09 10° NNE visible
09 Jul 7.3 00:45:43 17° WSW 00:48:14 24° WNW 00:52:24 10° NNW visible
09 Jul 7.0 22:31:37 15° ESE 22:34:00 21° E 22:37:55 10° NNE visible
10 Jul 6.4 00:12:04 27° SW 00:14:28 44° W 00:19:26 10° N visible
10 Jul 7.5 21:59:23 10° E 22:00:46 11° ENE 22:02:29 10° ENE visible
10 Jul 5.5 23:38:24 32° S 23:40:52 81° W 23:46:06 10° N visible
11 Jul 5.7 23:04:43 27° SSE 23:07:22 55° E 23:12:28 10° NNE visible
12 Jul 7.8 00:45:10 10° WSW 00:48:34 17° WNW 00:51:50 10° NW visible
12 Jul 6.5 22:31:01 17° SE 22:33:59 30° E 22:38:31 10° NNE visible
